sat.trackr.live / text

‹ back to catalog

KUIPER-00433

NORAD 68869 · 2026-095F

PAYLOAD ACTIVE UNKNOWN

§ Identity

Operator
Country
US
Launch date
2026-04-28
Launch site
AFETR
Launch vehicle
Mass (kg)
RCS (m²)

External: N2YO · Heavens-Above · Gunter

§ Orbital elements

Epoch: 2026-09-19T04:45:07.546464Z

Period
97.30 min
Inclination
51.8977°
Eccentricity
0.0000933
Mean motion
14.79929453 rev/d
Perigee alt
628.9 km
Apogee alt
630.2 km
Semi-major
7,007.7 km
B*
-4.7672e-5
RAAN
197.4432°
Arg perigee
49.7388°
Mean anomaly
310.3656°
Rev number
2,150

§ Raw data

KUIPER-004331 68869U 26095F   26262.19800401 -.00000585  00000+0 -47672-4 0  99992 68869  51.8977 197.4432 0000933  49.7388 310.3656 14.79929453 21505

JSON: /api/v1/satellites/68869 · /tle

For live sub-satellite position, see the globe view (requires WebGL).

§ Visibility from observer

Set your observer location to see the next 7 days of passes ≥ 10°. The values pass through the URL so the page stays shareable.

No JS? Fill the form by hand. The geolocation button needs JavaScript.